VIR56H EGLL-EGCC

Flight info

Callsign VIR56H
Flight time 0h 30m
Altitude 18000
Route ULTIB T420 ELVOS
Aircraft A346/H-SDE2E3FGHIJ3J4J5M1RWXY/LB1D1

Departure

Time 2026-05-07 23:19
Airport London Heathrow Airport (EGLL)

Arrival

Time 2026-05-07 23:50
Airport Manchester Airport (EGCC)
Time Latitude Longitude Altitude Speed Heading
2026-05-07 22:58 51.47051 -0.47740 89 ft 0 kts 91°
2026-05-07 23:08 51.47051 -0.47757 89 ft 2 kts 91°
2026-05-07 23:08 51.47051 -0.47781 89 ft 2 kts 91°
2026-05-07 23:09 51.47052 -0.47806 89 ft 2 kts 91°
2026-05-07 23:09 51.47052 -0.47831 89 ft 2 kts 94°
2026-05-07 23:09 51.47056 -0.47854 89 ft 2 kts 127°
2026-05-07 23:09 51.47067 -0.47870 88 ft 2 kts 153°
2026-05-07 23:10 51.47081 -0.47877 88 ft 2 kts 179°
2026-05-07 23:10 51.47096 -0.47876 88 ft 2 kts 184°
2026-05-07 23:10 51.47111 -0.47875 88 ft 2 kts 180°
2026-05-07 23:10 51.47126 -0.47875 87 ft 1 kts 179°
2026-05-07 23:11 51.47128 -0.47875 87 ft 0 kts 179°
2026-05-07 23:14 51.47126 -0.47875 87 ft 1 kts 179°
2026-05-07 23:14 51.47089 -0.47874 88 ft 8 kts 180°
2026-05-07 23:15 51.47018 -0.47874 89 ft 11 kts 180°
2026-05-07 23:15 51.46934 -0.47874 90 ft 13 kts 180°
2026-05-07 23:15 51.46831 -0.47872 90 ft 15 kts 180°
2026-05-07 23:15 51.46744 -0.47915 90 ft 11 kts 253°
2026-05-07 23:16 51.46746 -0.48025 90 ft 10 kts 269°
2026-05-07 23:16 51.46743 -0.48162 89 ft 14 kts 268°
2026-05-07 23:16 51.46742 -0.48337 87 ft 17 kts 270°
2026-05-07 23:16 51.46727 -0.48458 87 ft 9 kts 223°
2026-05-07 23:17 51.46653 -0.48472 86 ft 10 kts 179°
2026-05-07 23:17 51.46611 -0.48472 86 ft 6 kts 180°
2026-05-07 23:17 51.46549 -0.48472 86 ft 11 kts 180°
2026-05-07 23:17 51.46481 -0.48431 86 ft 9 kts 107°
2026-05-07 23:18 51.46481 -0.48375 86 ft 0 kts 89°
2026-05-07 23:18 51.46481 -0.48284 86 ft 36 kts 90°
2026-05-07 23:19 51.46482 -0.47356 87 ft 126 kts 90°
2026-05-07 23:19 51.46492 -0.45601 263 ft 179 kts 89°
2026-05-07 23:19 51.46523 -0.43654 1172 ft 177 kts 91°
2026-05-07 23:19 51.46624 -0.41697 2087 ft 183 kts 77°
2026-05-07 23:20 51.47288 -0.39902 2822 ft 202 kts 54°
2026-05-07 23:20 51.48253 -0.38101 3575 ft 216 kts 51°
2026-05-07 23:20 51.49296 -0.36214 4139 ft 230 kts 50°
2026-05-07 23:20 51.50396 -0.34219 4594 ft 251 kts 50°
2026-05-07 23:21 51.51582 -0.32041 5164 ft 266 kts 52°
2026-05-07 23:21 51.52516 -0.29450 5820 ft 272 kts 70°
2026-05-07 23:21 51.53107 -0.26602 6768 ft 273 kts 73°
2026-05-07 23:21 51.53674 -0.23719 7652 ft 276 kts 72°
2026-05-07 23:22 51.54303 -0.20791 8452 ft 282 kts 66°
2026-05-07 23:22 51.55487 -0.18332 9203 ft 286 kts 34°
2026-05-07 23:22 51.57308 -0.17178 10042 ft 286 kts
2026-05-07 23:22 51.59251 -0.17581 10720 ft 290 kts 335°
2026-05-07 23:23 51.60890 -0.19481 11209 ft 300 kts 307°
2026-05-07 23:23 51.62072 -0.22318 11665 ft 314 kts 304°
2026-05-07 23:23 51.63575 -0.24995 12015 ft 334 kts 318°
2026-05-07 23:23 51.65509 -0.27310 12419 ft 353 kts 325°
2026-05-07 23:24 51.67629 -0.29451 12784 ft 370 kts 328°
2026-05-07 23:24 51.69864 -0.31594 13404 ft 378 kts 328°
2026-05-07 23:24 51.72131 -0.33752 14189 ft 382 kts 328°
2026-05-07 23:24 51.74438 -0.35960 14984 ft 386 kts 328°
2026-05-07 23:25 51.76746 -0.38184 15697 ft 390 kts 328°
2026-05-07 23:25 51.79055 -0.40417 16409 ft 394 kts 327°
2026-05-07 23:25 51.81410 -0.42699 17115 ft 398 kts 327°
2026-05-07 23:25 51.83793 -0.45007 17711 ft 402 kts 327°
2026-05-07 23:26 51.86189 -0.47333 18010 ft 403 kts 327°
2026-05-07 23:26 51.88603 -0.49681 18050 ft 403 kts 327°
2026-05-07 23:26 51.90968 -0.51985 18059 ft 403 kts 327°
2026-05-07 23:26 51.93368 -0.54326 18092 ft 403 kts 327°
2026-05-07 23:27 51.98166 -0.59005 18079 ft 403 kts 327°
2026-05-07 23:27 52.00562 -0.61348 18074 ft 403 kts 327°
2026-05-07 23:27 52.02965 -0.63701 18064 ft 403 kts 327°
2026-05-07 23:28 52.05377 -0.66072 18064 ft 403 kts 326°
2026-05-07 23:28 52.07764 -0.68432 18059 ft 403 kts 326°
2026-05-07 23:28 52.10160 -0.70799 18057 ft 403 kts 326°
2026-05-07 23:28 52.12555 -0.73153 18056 ft 403 kts 327°
2026-05-07 23:29 52.14972 -0.75524 18057 ft 403 kts 327°
2026-05-07 23:29 52.17343 -0.77857 18056 ft 403 kts 327°
2026-05-07 23:29 52.19730 -0.80215 18055 ft 403 kts 327°
2026-05-07 23:29 52.22140 -0.82600 18056 ft 403 kts 327°
2026-05-07 23:30 52.24569 -0.85009 18062 ft 416 kts 327°
2026-05-07 23:30 52.27032 -0.87452 18054 ft 422 kts 327°
2026-05-07 23:30 52.29571 -0.89968 18054 ft 423 kts 327°
2026-05-07 23:30 52.32048 -0.92428 18053 ft 423 kts 327°
2026-05-07 23:31 52.34568 -0.94937 18053 ft 423 kts 327°
2026-05-07 23:31 52.37071 -0.97434 18052 ft 423 kts 327°
2026-05-07 23:31 52.39592 -0.99953 18051 ft 423 kts 327°
2026-05-07 23:31 52.42101 -1.02466 18050 ft 423 kts 327°
2026-05-07 23:32 52.44608 -1.04982 18049 ft 423 kts 327°
2026-05-07 23:32 52.47087 -1.07470 18043 ft 423 kts 327°
2026-05-07 23:32 52.49607 -1.10001 18051 ft 423 kts 327°
2026-05-07 23:32 52.52117 -1.12526 18031 ft 423 kts 327°
2026-05-07 23:33 52.54602 -1.15028 18041 ft 423 kts 327°
2026-05-07 23:33 52.57097 -1.17542 18024 ft 423 kts 327°
2026-05-07 23:33 52.59609 -1.20073 18054 ft 423 kts 327°
2026-05-07 23:33 52.62120 -1.22610 18001 ft 423 kts 327°
2026-05-07 23:34 52.64621 -1.25142 18032 ft 423 kts 327°
2026-05-07 23:34 52.67117 -1.27672 18036 ft 419 kts 327°
2026-05-07 23:34 52.69536 -1.30125 17834 ft 408 kts 327°
2026-05-07 23:34 52.71935 -1.32558 17551 ft 399 kts 327°
2026-05-07 23:35 52.74261 -1.34921 17111 ft 395 kts 327°
2026-05-07 23:35 52.76587 -1.37290 16606 ft 393 kts 327°
2026-05-07 23:35 52.78911 -1.39662 16115 ft 390 kts 327°
2026-05-07 23:35 52.81209 -1.42011 15636 ft 388 kts 327°
2026-05-07 23:36 52.83464 -1.44321 15167 ft 385 kts 327°
2026-05-07 23:36 52.85726 -1.46640 14694 ft 382 kts 327°
2026-05-07 23:36 52.87991 -1.48967 14213 ft 380 kts 327°
2026-05-07 23:36 52.90214 -1.51252 13756 ft 377 kts 327°
2026-05-07 23:37 52.92410 -1.53512 13290 ft 375 kts 327°
2026-05-07 23:37 52.94619 -1.55788 12853 ft 372 kts 327°
2026-05-07 23:37 52.96790 -1.58029 12430 ft 369 kts 327°
2026-05-07 23:37 52.98956 -1.60268 11978 ft 367 kts 327°
2026-05-07 23:38 53.01131 -1.62516 11519 ft 364 kts 327°
2026-05-07 23:38 53.03249 -1.64709 11070 ft 361 kts 326°
2026-05-07 23:38 53.05247 -1.67132 10845 ft 350 kts 317°
2026-05-07 23:38 53.06959 -1.69899 10651 ft 338 kts 310°
2026-05-07 23:39 53.08481 -1.72802 10477 ft 328 kts 308°
2026-05-07 23:39 53.09924 -1.75643 10304 ft 318 kts 308°
2026-05-07 23:39 53.11324 -1.78383 10131 ft 309 kts 308°
2026-05-07 23:39 53.12721 -1.81086 9953 ft 300 kts 308°
2026-05-07 23:40 53.14063 -1.83686 9782 ft 291 kts 308°
2026-05-07 23:40 53.15356 -1.86198 9563 ft 285 kts 308°
2026-05-07 23:40 53.16642 -1.88702 9223 ft 284 kts 308°
2026-05-07 23:40 53.17912 -1.91184 8863 ft 283 kts 308°
2026-05-07 23:41 53.19181 -1.93665 8512 ft 281 kts 307°
2026-05-07 23:41 53.20447 -1.96139 8190 ft 279 kts 307°
2026-05-07 23:41 53.21687 -1.98561 8029 ft 270 kts 307°
2026-05-07 23:41 53.22879 -2.00892 7873 ft 262 kts 308°
2026-05-07 23:42 53.24271 -2.02765 7678 ft 261 kts 338°
2026-05-07 23:42 53.26046 -2.03126 7516 ft 256 kts
2026-05-07 23:42 53.27807 -2.02819 7241 ft 253 kts
2026-05-07 23:42 53.29548 -2.02434 6891 ft 255 kts
2026-05-07 23:43 53.31303 -2.02094 6655 ft 251 kts
2026-05-07 23:43 53.33020 -2.01813 6457 ft 246 kts
2026-05-07 23:43 53.34718 -2.01572 6282 ft 238 kts
2026-05-07 23:43 53.36315 -2.01361 6126 ft 227 kts
2026-05-07 23:44 53.37861 -2.01165 5944 ft 218 kts
2026-05-07 23:44 53.39350 -2.00980 5725 ft 211 kts
2026-05-07 23:44 53.40796 -2.00804 5405 ft 210 kts
2026-05-07 23:44 53.42266 -2.00623 5059 ft 209 kts
2026-05-07 23:45 53.43706 -2.00449 4720 ft 208 kts
2026-05-07 23:45 53.45141 -2.00273 4398 ft 207 kts
2026-05-07 23:45 53.46570 -2.00327 4008 ft 206 kts 339°
2026-05-07 23:45 53.47596 -2.01789 3644 ft 193 kts 289°
2026-05-07 23:46 53.47616 -2.03881 3251 ft 180 kts 239°
2026-05-07 23:46 53.46774 -2.05304 3037 ft 177 kts 215°
2026-05-07 23:46 53.45773 -2.06577 3011 ft 180 kts 218°
2026-05-07 23:46 53.44862 -2.08007 2932 ft 181 kts 224°
2026-05-07 23:47 53.44037 -2.09582 2720 ft 181 kts 228°
2026-05-07 23:47 53.43248 -2.11226 2472 ft 180 kts 229°
2026-05-07 23:47 53.42463 -2.12870 2228 ft 180 kts 229°
2026-05-07 23:47 53.41685 -2.14483 1988 ft 179 kts 228°
2026-05-07 23:48 53.40899 -2.16099 1742 ft 179 kts 228°
2026-05-07 23:48 53.40120 -2.17704 1475 ft 168 kts 229°
2026-05-07 23:48 53.39410 -2.19163 1233 ft 161 kts 229°
2026-05-07 23:48 53.38702 -2.20622 1016 ft 159 kts 229°
2026-05-07 23:49 53.38012 -2.22047 816 ft 159 kts 230°
2026-05-07 23:49 53.37308 -2.23492 615 ft 159 kts 230°
2026-05-07 23:49 53.36618 -2.24926 419 ft 158 kts 230°
2026-05-07 23:49 53.35933 -2.26342 247 ft 156 kts 231°
2026-05-07 23:50 53.35379 -2.27483 241 ft 88 kts 232°
2026-05-07 23:50 53.35153 -2.27942 241 ft 13 kts 230°
2026-05-07 23:50 53.35146 -2.27955 241 ft 1 kts 230°
2026-05-07 23:50 53.35101 -2.28049 241 ft 15 kts 233°
2026-05-07 23:51 53.35127 -2.28182 241 ft 15 kts 334°
2026-05-07 23:51 53.35240 -2.28190 241 ft 17 kts
2026-05-07 23:51 53.35364 -2.28170 241 ft 18 kts
2026-05-07 23:51 53.35497 -2.28121 241 ft 20 kts 30°
2026-05-07 23:52 53.35600 -2.27953 241 ft 21 kts 51°
2026-05-07 23:52 53.35731 -2.27875 241 ft 21 kts
2026-05-07 23:52 53.35877 -2.27852 241 ft 19 kts
2026-05-07 23:52 53.36010 -2.27830 241 ft 18 kts 359°
2026-05-07 23:53 53.36112 -2.27926 241 ft 16 kts 313°
2026-05-07 23:53 53.36193 -2.28063 241 ft 16 kts 316°
2026-05-07 23:53 53.36271 -2.28192 241 ft 15 kts 315°
2026-05-07 23:53 53.36347 -2.28319 241 ft 15 kts 315°
2026-05-07 23:54 53.36420 -2.28443 241 ft 14 kts 315°
2026-05-07 23:54 53.36491 -2.28561 241 ft 14 kts 315°
2026-05-07 23:54 53.36556 -2.28678 241 ft 13 kts 301°
2026-05-07 23:54 53.36611 -2.28768 241 ft 11 kts
2026-05-07 23:55 53.36679 -2.28692 241 ft 12 kts 45°
2026-05-07 23:55 53.36738 -2.28593 241 ft 12 kts 45°
2026-05-07 23:55 53.36798 -2.28495 241 ft 12 kts 45°
2026-05-07 23:55 53.36839 -2.28460 241 ft 5 kts 356°
2026-05-07 23:56 53.36875 -2.28494 241 ft 6 kts 319°
2026-05-07 23:56 53.36885 -2.28510 241 ft 0 kts 317°
2026-05-07 23:56 53.36886 -2.28511 241 ft 0 kts 317°